PEGASUS DEB, 39922

Orbit data source: Space-Track

PEGASUS DEB, 39922 is space debris in LEO originally from a launch on Thu, 19 May 1994 UTC launched from the Air Force Western Test Range (AFWTR). Debris objects in space refer to the collection of defunct objects orbiting the Earth. Examples of debris include non-operational satellites, rocket bodies, and fragments generated from explosions, collisions, or faulty payload assembly.

Loading next visibility...
Identifier
39922, 1994-029AFV
Orbit
LEO
Country
Flag of USUS
Related business
Manufacturer
Unknown
Mission
Spacecraft
Bus & Motor
Unknown
Mass
Unknown
Launch date (UTC)
1994-05-19 (32 years ago)
Launch vehicle
Unknown
Launch site
Air Force Western Test Range (AFWTR)
Object type
Payload
Rocket body
Debris
Shape & HBR
Unknown shape, 0.1 m
Radar Cross Section
Small (<0.1 m²)

Expand to show TLE details & history
Last TLE update: 3 days ago

TLE from 3 days ago
0 PEGASUS DEB
1 39922U 94029AFV 26116.03232860  .00009260  00000-0  79029-3 0  9996
2 39922  81.5873  30.1643 0108362 142.3344 218.5527 14.93064202637026
Epoch: 2026-04-26T00:46Z
TLE epoch observation values (Epoch: 2026-04-26T00:46:33.191Z)
Latitude
0.00004°
Longitude
164.48384°
Altitude
650.775 km
Speed
7.5 km/s
True Right ascension
02h 00m 39s
True Declination
0° 00' 00"
Sunlit
Object was in daylight at epoch
Visualization orbit readout
Latitude
Unknown
Longitude
Unknown
Altitude
Unknown
Speed
Unknown
Apparent Right ascension
Unknown
Apparent Declination
Unknown
Sunlit
N/A
Visualization observer readout
Local Sidereal Time
15:14:56
Azimuth
Unknown
Elevation
Unknown
Doppler factor
Unknown
Orbital elements
Apogee altitude
660.893 km
Perigee altitude
509.976 km
Semi-major axis
6,963.572 km
Eccentricity
0.01084
Inclination
81.5873°
RAAN
30.1643°
Arg. of periapsis
142.3344°
True anomaly
217.78694°
Mean anomaly
218.5527°
Eccentric anomaly
218.16901°
Mean motion
3.73504 °/min
Orbital period
96.38 mins
BSTAR
0.00079029
Loading maneuver chart data...
Computing Atmospheric mass density...
Loading historical data...
Loading historical data...
Loading historical data...
Loading historical data...
Loading historical data...
Loading historical data...
Loading historical data...

Documentation

Showing up to 5 results
|